Gage, OK

12:30 AM CDT on August 29, 2016 (GMT -0500)
Gage

Weather History for KGAG - January, 2013

Change the Weather History Date:

Monday, January 7, 2013

  Actual Average Record
Temperature  
Mean Temperature 40 °F -  
Max Temperature 53 °F 42 °F 84 °F (2006)
Min Temperature 28 °F 15 °F -10 °F (1988)
Degree Days  
Heating Degree Days 24    
Moisture  
Dew Point 23 °F    
Average Humidity 54    
Maximum Humidity 75    
Minimum Humidity 30    
Precipitation  
Precipitation 0.00 in - - ()
Sea Level Pressure  
Sea Level Pressure 30.11 in    
Wind  
Wind Speed 15 mph (SSW)    
Max Wind Speed 23 mph    
Max Gust Speed 32 mph    
Visibility 10 miles    
Events      
Averages and records for this station are not official NWS values.
T = Trace of Precipitation, MM = Missing Value Source: NWS Daily Summary

Daily Weather History Graph

Daily Weather History Graph

Search for Another Location

Airport or City:

Trip Planner

Search our weather history database for the weather conditions in past years. The results will help you decide how hot, cold, wet, or windy it might be!

Date:

Astronomy

Jan. 07, 2013 Rise Set
Actual Time 7:50 AM CST 5:40 PM CST
Civil Twilight 7:22 AM CST 6:08 PM CST
Nautical Twilight 6:50 AM CST 6:40 PM CST
Astronomical Twilight 6:19 AM CST 7:11 PM CST
Moon 3:18 AM CST (1/7) 1:51 PM CST (1/7)
Length of Visible Light 10h 46m
Length of Day
9h 49m
Waning Crescent, 22% of the Moon is Illuminated
Jan 7
Waning Crescent
Jan 11
New
Jan 18
First Quarter
Jan 26
Full
Feb 3
Last Quarter

Hourly Weather History & Observations

Time (CST) Temp. Windchill Dew Point Humidity Pressure Visibility Wind Dir Wind Speed Gust Speed Precip Events Conditions
12:53 AM 33.1 °F 23.4 °F 21.9 °F 64% 30.24 in 10.0 mi SSW 13.8 mph - N/A   Clear
1:53 AM 28.0 °F 18.6 °F 21.0 °F 75% 30.23 in 10.0 mi South 10.4 mph - N/A   Clear
2:53 AM 28.0 °F 18.6 °F 21.0 °F 75% 30.23 in 10.0 mi South 10.4 mph - N/A   Clear
3:53 AM 30.9 °F 20.7 °F 21.9 °F 69% 30.21 in 10.0 mi South 13.8 mph - N/A   Clear
4:53 AM 30.9 °F 20.2 °F 21.0 °F 67% 30.19 in 10.0 mi South 15.0 mph - N/A   Clear
5:53 AM 30.9 °F 20.2 °F 21.0 °F 67% 30.17 in 10.0 mi South 15.0 mph - N/A   Clear
6:53 AM 33.1 °F 22.6 °F 21.0 °F 61% 30.19 in 10.0 mi SSW 16.1 mph - N/A   Clear
7:53 AM 34.0 °F 24.2 °F 21.9 °F 61% 30.18 in 10.0 mi SSW 15.0 mph - N/A   Clear
8:53 AM 36.0 °F 27.1 °F 21.9 °F 57% 30.19 in 10.0 mi SSW 13.8 mph - N/A   Clear
9:53 AM 41.0 °F 31.1 °F 21.9 °F 47% 30.18 in 10.0 mi SSW 23.0 mph 28.8 mph N/A   Clear
10:53 AM 44.1 °F 35.7 °F 23.0 °F 43% 30.19 in 10.0 mi SSW 20.7 mph 27.6 mph N/A   Clear
11:53 AM 46.9 °F - 21.9 °F 37% 30.14 in 10.0 mi SSW 23.0 mph 32.2 mph N/A   Clear
12:53 PM 48.9 °F - 23.0 °F 36% 30.09 in 10.0 mi SSW 20.7 mph 26.5 mph N/A   Clear
1:53 PM 52.0 °F - 23.0 °F 32% 30.05 in 10.0 mi SSW 23.0 mph 27.6 mph N/A   Clear
2:53 PM 53.1 °F - 21.9 °F 30% 30.05 in 10.0 mi SSW 17.3 mph - N/A   Clear
3:53 PM 51.1 °F - 23.0 °F 33% 30.04 in 10.0 mi South 19.6 mph - N/A   Clear
4:53 PM 50.0 °F - 24.1 °F 36% 30.03 in 10.0 mi South 15.0 mph - N/A   Clear
5:53 PM 45.0 °F 38.2 °F 24.1 °F 44% 30.04 in 10.0 mi South 15.0 mph - N/A   Clear
6:53 PM 41.0 °F 33.5 °F 25.0 °F 53% 30.04 in 10.0 mi South 13.8 mph - N/A   Clear
7:53 PM 39.0 °F 29.9 °F 24.1 °F 55% 30.03 in 10.0 mi South 17.3 mph - N/A   Clear
8:53 PM 37.0 °F 28.1 °F 24.1 °F 59% 30.03 in 10.0 mi South 15.0 mph - N/A   Clear
9:53 PM 36.0 °F 26.0 °F 24.1 °F 62% 30.01 in 10.0 mi South 17.3 mph - N/A   Clear
10:53 PM 34.0 °F 23.4 °F 24.1 °F 67% 30.00 in 10.0 mi South 17.3 mph - N/A   Clear
11:53 PM 34.0 °F 24.6 °F 23.0 °F 64% 29.99 in 10.0 mi South 13.8 mph - N/A   Clear